Location: Borowce
(50.8255°N, 19.6209°E)
Time: 16:52:28
(UTC+00:00)

Okean 1 - Pass Details

Date: 19 May 2025
Orbit: 478 x 498 km, 82.5° (Epoch: 20 June)

Event Time Altitude Azimuth Distance (km) Brightness Sun altitude
Exits shadow 20:09:23 19° 146° (SSE) 1,206 4.4 -12.0°
Maximum altitude 20:11:25 35° 93° (E) 816 3.9 -12.2°
Drops below altitude 10° 20:14:47 10° 27° (NNE) 1,684 6.2 -12.5°
Sets 20:17:00 0° 18° (NNE) 2,567 7.3 -12.7°
